Location: Carbonear
(47.7333°N, 53.2500°W)
Time: 13:50:23
(UTC+00:00)

UNISAT 6 - Visible Passes

Search period start: 08 December 2022 00:00
Search period end: 18 December 2022 00:00
Orbit: 604 x 683 km, 97.7° (Epoch: 07 December)

Date Brightness Start Highest point End Pass type
(mag) Time Alt. Az. Time Alt. Az. Time Alt. Az.
08 Dec ? 07:30:41 10° ESE 07:33:14 23° E 07:33:14 23° E visible
08 Dec ? 09:06:31 10° SSW 09:10:40 40° W 09:10:54 40° W visible
08 Dec ? 20:53:30 10° NNE 20:57:46 34° E 21:02:01 10° SSE visible
08 Dec ? 22:30:44 13° N 22:34:19 31° WNW 22:38:24 10° SW visible
09 Dec ? 07:54:33 10° SE 07:58:00 38° E 07:58:00 38° E visible
09 Dec ? 09:31:53 10° SSW 09:35:28 24° W 09:35:40 24° W visible
09 Dec ? 21:17:58 11° NNE 21:22:31 59° E 21:27:06 10° S visible
09 Dec ? 22:55:38 11° NNW 22:58:42 20° WNW 23:02:03 10° WSW visible
10 Dec ? 08:18:49 10° SSE 08:22:47 65° ESE 08:22:47 65° ESE visible
10 Dec ? 09:58:00 10° WSW 10:00:22 14° W 10:00:26 14° W visible
10 Dec ? 21:42:52 12° NNE 21:47:10 82° WNW 21:51:49 10° SSW visible
10 Dec ? 23:21:02 10° NNW 23:23:00 13° WNW 23:24:58 10° W visible
11 Dec ? 07:08:57 10° E 07:09:55 13° E 07:09:55 13° E visible
11 Dec ? 08:43:25 10° S 08:47:34 66° SW 08:47:34 66° SW visible
11 Dec ? 20:31:14 10° NE 20:34:51 22° E 20:38:26 10° SE visible
11 Dec ? 22:07:45 13° N 22:11:42 48° WNW 22:16:11 10° SW visible
12 Dec ? 07:32:23 10° ESE 07:34:41 22° E 07:34:41 22° E visible
12 Dec ? 09:08:22 10° SSW 09:12:20 38° WSW 09:12:20 38° WSW visible
12 Dec ? 20:55:20 10° NNE 20:59:40 36° E 21:03:57 10° SSE visible
12 Dec ? 22:32:38 13° N 22:36:10 30° WNW 22:40:11 10° SW visible
13 Dec ? 07:56:18 10° SE 07:59:27 36° ESE 07:59:27 36° ESE visible
13 Dec ? 09:33:46 10° SW 09:37:07 23° W 09:37:07 23° W visible
13 Dec ? 21:19:50 11° NNE 21:24:23 62° E 21:28:59 10° S visible
13 Dec ? 22:57:29 11° NNW 23:00:32 19° WNW 23:03:46 10° WSW visible
14 Dec ? 08:20:35 10° SSE 08:24:14 58° SE 08:24:14 58° SE visible
14 Dec ? 09:59:58 10° WSW 10:01:53 13° W 10:01:53 13° W visible
14 Dec ? 21:44:42 12° N 21:49:00 78° WNW 21:53:38 10° SSW visible
14 Dec ? 23:23:04 10° NW 23:24:49 12° NW 23:26:33 10° WNW visible
15 Dec ? 07:10:34 10° ESE 07:11:22 13° E 07:11:22 13° E visible
15 Dec ? 08:45:12 10° S 08:49:01 57° SW 08:49:01 57° SW visible
15 Dec ? 20:33:00 10° NE 20:36:42 23° E 20:40:21 10° SE visible
15 Dec ? 22:09:33 13° N 22:13:32 46° WNW 22:17:57 10° SW visible
16 Dec ? 07:34:03 10° ESE 07:36:08 22° E 07:36:08 22° E visible
16 Dec ? 09:10:11 10° SSW 09:13:47 35° WSW 09:13:47 35° WSW visible
16 Dec ? 20:57:07 10° NNE 21:01:30 38° E 21:05:47 10° SSE visible
16 Dec ? 22:34:24 12° N 22:37:58 28° WNW 22:41:54 10° WSW visible
17 Dec ? 07:58:00 10° SE 08:00:55 34° ESE 08:00:55 34° ESE visible
17 Dec ? 09:35:37 10° SW 09:38:35 22° WSW 09:38:35 22° WSW visible
17 Dec ? 21:21:35 10° NNE 21:26:11 65° E 21:30:46 10° S visible
17 Dec ? 22:59:14 10° NNW 23:02:18 18° WNW 23:05:25 10° WSW visible
